| time (UTC) | temp F | wind direction | speed MPH | gust MPH | rain 1hr in | rain 24hr in | rain mn in | humidity % | barometer mb |
| 20260502235114 | 77 | 0 | 0.0 | 9.0 | 0.00 | 0.00 | 0.00 | 14 | 1014.3 |
| 20260502234514 | 77 | 65 | 4.0 | 9.0 | 0.00 | 0.00 | 0.00 | 15 | 1014.4 |
| 20260502233914 | 77 | 38 | 5.0 | 9.0 | 0.00 | 0.00 | 0.00 | 13 | 1014.5 |
| 20260502233314 | 77 | 46 | 5.0 | 9.0 | 0.00 | 0.00 | 0.00 | 15 | 1014.5 |
| 20260502232714 | 77 | 14 | 3.0 | 9.0 | 0.00 | 0.00 | 0.00 | 13 | 1014.5 |
| 20260502232114 | 76 | 35 | 5.0 | 9.0 | 0.00 | 0.00 | 0.00 | 14 | 1014.6 |
| 20260502231514 | 76 | 38 | 6.0 | 11.0 | 0.00 | 0.00 | 0.00 | 15 | 1014.6 |
| 20260502231335 | 76 | 66 | 7.0 | 12.0 | 0.00 | 0.00 | 0.00 | 14 | 1014.8 |
| 20260502231320 | 76 | 62 | 4.0 | 10.0 | 0.00 | 0.00 | 0.00 | 15 | 1014.8 |
| 20260502230914 | 76 | 66 | 7.0 | 12.0 | 0.00 | 0.00 | 0.00 | 14 | 1014.8 |
| 20260502230314 | 76 | 69 | 5.0 | 9.0 | 0.00 | 0.00 | 0.00 | 16 | 1014.8 |
| 20260502225714 | 76 | 62 | 4.0 | 10.0 | 0.00 | 0.00 | 0.00 | 15 | 1014.8 |
| 20260502225152 | 76 | 94 | 7.0 | 13.0 | 0.00 | 0.00 | 0.00 | 14 | 1014.9 |
| 20260502225146 | 76 | 78 | 3.0 | 11.0 | 0.00 | 0.00 | 0.00 | 14 | 1015.0 |
| 20260502225114 | 76 | 84 | 5.0 | 13.0 | 0.00 | 0.00 | 0.00 | 18 | 1014.9 |
| 20260502224514 | 76 | 94 | 7.0 | 13.0 | 0.00 | 0.00 | 0.00 | 14 | 1014.9 |
| 20260502223947 | 76 | 78 | 3.0 | 11.0 | 0.00 | 0.00 | 0.00 | 14 | 1015.0 |
| 20260502223914 | 76 | 78 | 3.0 | 11.0 | 0.00 | 0.00 | 0.00 | 14 | 1015.0 |
| 20260502223314 | 77 | 93 | 8.0 | 11.0 | 0.00 | 0.00 | 0.00 | 14 | 1015.1 |
| 20260502222713 | 77 | 129 | 4.0 | 12.0 | 0.00 | 0.00 | 0.00 | 13 | 1015.1 |
| 20260502222114 | 76 | 113 | 6.0 | 13.0 | 0.00 | 0.00 | 0.00 | 16 | 1015.3 |
| 20260502221514 | 77 | 118 | 9.0 | 13.0 | 0.00 | 0.00 | 0.00 | 17 | 1015.4 |
| 20260502220946 | 77 | 108 | 7.0 | 14.0 | 0.00 | 0.00 | 0.00 | 17 | 1015.4 |
| 20260502220914 | 77 | 108 | 7.0 | 14.0 | 0.00 | 0.00 | 0.00 | 17 | 1015.4 |
| 20260502220314 | 77 | 68 | 11.0 | 14.0 | 0.00 | 0.00 | 0.00 | 15 | 1015.6 |
| 20260502215713 | 77 | 70 | 8.0 | 12.0 | 0.00 | 0.00 | 0.00 | 16 | 1015.7 |
| 20260502215114 | 77 | 98 | 7.0 | 10.0 | 0.00 | 0.00 | 0.00 | 19 | 1015.8 |
| 20260502214514 | 76 | 106 | 5.0 | 14.0 | 0.00 | 0.00 | 0.00 | 16 | 1015.8 |
| 20260502213913 | 76 | 105 | 8.0 | 14.0 | 0.00 | 0.00 | 0.00 | 15 | 1015.9 |
| 20260502213314 | 76 | 133 | 8.0 | 12.0 | 0.00 | 0.00 | 0.00 | 16 | 1016.0 |
| 20260502212714 | 76 | 106 | 5.0 | 11.0 | 0.00 | 0.00 | 0.00 | 17 | 1016.0 |
| 20260502212113 | 76 | 125 | 4.0 | 14.0 | 0.00 | 0.00 | 0.00 | 18 | 1016.1 |
| 20260502211514 | 76 | 114 | 10.0 | 14.0 | 0.00 | 0.00 | 0.00 | 17 | 1016.3 |
| 20260502210914 | 75 | 129 | 5.0 | 12.0 | 0.00 | 0.00 | 0.00 | 20 | 1016.3 |
| 20260502210313 | 75 | 139 | 8.0 | 14.0 | 0.00 | 0.00 | 0.00 | 19 | 1016.4 |
| 20260502205714 | 75 | 152 | 6.0 | 14.0 | 0.00 | 0.00 | 0.00 | 20 | 1016.4 |
| 20260502205113 | 75 | 130 | 3.0 | 12.0 | 0.00 | 0.00 | 0.00 | 17 | 1016.5 |
| 20260502204513 | 75 | 101 | 5.0 | 15.0 | 0.00 | 0.00 | 0.00 | 17 | 1016.5 |
| 20260502203914 | 75 | 141 | 9.0 | 15.0 | 0.00 | 0.00 | 0.00 | 18 | 1016.5 |
| 20260502203314 | 75 | 115 | 5.0 | 15.0 | 0.00 | 0.00 | 0.00 | 17 | 1016.6 |
| 20260502202713 | 75 | 100 | 10.0 | 16.0 | 0.00 | 0.00 | 0.00 | 20 | 1016.7 |
| 20260502202114 | 75 | 137 | 13.0 | 17.0 | 0.00 | 0.00 | 0.00 | 20 | 1015.9 |
| 20260502201513 | 75 | 157 | 12.0 | 18.0 | 0.00 | 0.00 | 0.00 | 18 | 1015.9 |
| 20260502200914 | 75 | 97 | 9.0 | 18.0 | 0.00 | 0.00 | 0.00 | 18 | 1016.0 |
| 20260502200314 | 75 | 126 | 4.0 | 20.0 | 0.00 | 0.00 | 0.00 | 19 | 1016.2 |
| 20260502195713 | 76 | 133 | 8.0 | 15.0 | 0.00 | 0.00 | 0.00 | 20 | 1016.1 |
| 20260502195114 | 75 | 163 | 7.0 | 18.0 | 0.00 | 0.00 | 0.00 | 19 | 1016.2 |
| 20260502194514 | 75 | 173 | 8.0 | 15.0 | 0.00 | 0.00 | 0.00 | 18 | 1016.2 |
| 20260502193913 | 74 | 142 | 9.0 | 15.0 | 0.00 | 0.00 | 0.00 | 22 | 1016.3 |
| 20260502193313 | 73 | 123 | 11.0 | 15.0 | 0.00 | 0.00 | 0.00 | 18 | 1016.4 |
| 20260502192714 | 73 | 106 | 9.0 | 14.0 | 0.00 | 0.00 | 0.00 | 19 | 1016.4 |
| 20260502192113 | 74 | 141 | 9.0 | 14.0 | 0.00 | 0.00 | 0.00 | 18 | 1016.5 |
| 20260502191514 | 74 | 138 | 11.0 | 14.0 | 0.00 | 0.00 | 0.00 | 21 | 1016.6 |
| 20260502190914 | 73 | 123 | 9.0 | 15.0 | 0.00 | 0.00 | 0.00 | 20 | 1016.6 |
| 20260502190352 | 73 | 155 | 8.0 | 17.0 | 0.00 | 0.00 | 0.00 | 24 | 1016.7 |
| 20260502190313 | 73 | 155 | 8.0 | 17.0 | 0.00 | 0.00 | 0.00 | 24 | 1016.7 |
| 20260502185714 | 72 | 145 | 11.0 | 17.0 | 0.00 | 0.00 | 0.00 | 22 | 1016.7 |
| 20260502185114 | 73 | 167 | 12.0 | 17.0 | 0.00 | 0.00 | 0.00 | 20 | 1016.7 |
| 20260502184513 | 73 | 140 | 9.0 | 16.0 | 0.00 | 0.00 | 0.00 | 22 | 1016.8 |
| 20260502183914 | 72 | 146 | 8.0 | 15.0 | 0.00 | 0.00 | 0.00 | 24 | 1016.7 |
| 20260502183314 | 72 | 138 | 5.0 | 15.0 | 0.00 | 0.00 | 0.00 | 24 | 1016.8 |
| 20260502182713 | 72 | 123 | 9.0 | 15.0 | 0.00 | 0.00 | 0.00 | 26 | 1017.1 |
| 20260502182114 | 71 | 158 | 9.0 | 15.0 | 0.00 | 0.00 | 0.00 | 25 | 1017.1 |
| 20260502180913 | 71 | 111 | 9.0 | 17.0 | 0.00 | 0.00 | 0.00 | 28 | 1017.3 |
| 20260502180314 | 70 | 123 | 4.0 | 15.0 | 0.00 | 0.00 | 0.00 | 30 | 1017.4 |
| 20260502170314 | 66 | 208 | 2.0 | 5.0 | 0.00 | 0.00 | 0.00 | 40 | 1017.7 |
| 20260502163913 | 62 | 0 | 0.0 | 7.0 | 0.00 | 0.00 | 0.00 | 43 | 1017.7 |
| 20260502163313 | 61 | 104 | 1.0 | 7.0 | 0.00 | 0.00 | 0.00 | 46 | 1017.7 |
| 20260502162819 | 60 | 134 | 2.0 | 5.0 | 0.00 | 0.00 | 0.00 | 45 | 1017.8 |
| 20260502162713 | 60 | 134 | 2.0 | 5.0 | 0.00 | 0.00 | 0.00 | 45 | 1017.8 |
| 20260502162114 | 59 | 146 | 2.0 | 5.0 | 0.00 | 0.00 | 0.00 | 46 | 1017.9 |
| 20260502161514 | 59 | 191 | 1.0 | 5.0 | 0.00 | 0.00 | 0.00 | 45 | 1017.9 |
| 20260502160913 | 58 | 170 | 3.0 | 7.0 | 0.00 | 0.00 | 0.00 | 45 | 1017.9 |
| 20260502152112 | 57 | 163 | 7.0 | 11.0 | 0.00 | 0.00 | 0.00 | 52 | 1017.7 |
| 20260502151514 | 56 | 126 | 5.0 | 8.0 | 0.00 | 0.00 | 0.00 | 55 | 1017.6 |
| 20260502150913 | 55 | 84 | 5.0 | 9.0 | 0.00 | 0.00 | 0.00 | 56 | 1017.5 |
| 20260502150313 | 55 | 82 | 4.0 | 10.0 | 0.00 | 0.00 | 0.00 | 55 | 1017.5 |
| 20260502130313 | 48 | 75 | 8.0 | 9.0 | 0.00 | 0.00 | 0.00 | 57 | 1016.8 |
| 20260502123312 | 50 | 111 | 6.0 | 10.0 | 0.00 | 0.00 | 0.00 | 54 | 1017.0 |
| 20260502122713 | 49 | 131 | 8.0 | 9.0 | 0.00 | 0.00 | 0.00 | 57 | 1016.9 |
| 20260502122113 | 48 | 138 | 6.0 | 9.0 | 0.00 | 0.00 | 0.00 | 60 | 1017.0 |
| 20260502121512 | 48 | 131 | 5.0 | 10.0 | 0.00 | 0.00 | 0.00 | 60 | 1016.8 |
| 20260502120912 | 48 | 143 | 7.0 | 11.0 | 0.00 | 0.00 | 0.00 | 60 | 1016.8 |
| 20260502120312 | 48 | 137 | 8.0 | 12.0 | 0.00 | 0.00 | 0.00 | 60 | 1016.8 |
| 20260502115713 | 48 | 89 | 8.0 | 13.0 | 0.00 | 0.00 | 0.00 | 60 | 1016.7 |
| 20260502115113 | 48 | 77 | 9.0 | 13.0 | 0.00 | 0.00 | 0.00 | 61 | 1016.6 |
| 20260502114513 | 47 | 76 | 11.0 | 13.0 | 0.00 | 0.00 | 0.00 | 62 | 1016.6 |
| 20260502113913 | 47 | 77 | 10.0 | 12.0 | 0.00 | 0.00 | 0.00 | 61 | 1016.6 |
| 20260502113313 | 48 | 84 | 8.0 | 10.0 | 0.00 | 0.00 | 0.00 | 60 | 1016.7 |
| 20260502112712 | 49 | 93 | 8.0 | 10.0 | 0.00 | 0.00 | 0.00 | 59 | 1016.9 |
| 20260502112112 | 49 | 108 | 8.0 | 10.0 | 0.00 | 0.00 | 0.00 | 58 | 1016.9 |
| 20260502111513 | 49 | 118 | 6.0 | 10.0 | 0.00 | 0.00 | 0.00 | 58 | 1017.0 |
| 20260502110913 | 48 | 114 | 7.0 | 10.0 | 0.00 | 0.00 | 0.00 | 60 | 1017.1 |
| 20260502110313 | 47 | 138 | 6.0 | 9.0 | 0.00 | 0.00 | 0.00 | 60 | 1017.0 |
| 20260502105712 | 48 | 139 | 7.0 | 11.0 | 0.00 | 0.00 | 0.00 | 59 | 1016.9 |
| 20260502105113 | 48 | 83 | 9.0 | 11.0 | 0.00 | 0.00 | 0.00 | 61 | 1016.9 |
| 20260502104513 | 47 | 89 | 7.0 | 11.0 | 0.00 | 0.00 | 0.00 | 61 | 1016.9 |
| 20260502103912 | 47 | 82 | 9.0 | 10.0 | 0.00 | 0.00 | 0.00 | 62 | 1016.7 |
| 20260502103312 | 47 | 86 | 8.0 | 10.0 | 0.00 | 0.00 | 0.00 | 62 | 1016.9 |
| 20260502102713 | 46 | 90 | 8.0 | 10.0 | 0.00 | 0.00 | 0.00 | 62 | 1017.0 |
| 20260502102113 | 46 | 92 | 8.0 | 12.0 | 0.00 | 0.00 | 0.00 | 60 | 1017.0 |
| 20260502101513 | 47 | 100 | 8.0 | 12.0 | 0.00 | 0.00 | 0.00 | 58 | 1017.0 |
| 20260502100313 | 49 | 110 | 10.0 | 12.0 | 0.00 | 0.00 | 0.00 | 55 | 1017.2 |
| 20260502091512 | 51 | 80 | 11.0 | 14.0 | 0.00 | 0.00 | 0.00 | 56 | 1017.4 |
| 20260502090912 | 51 | 79 | 10.0 | 14.0 | 0.00 | 0.00 | 0.00 | 55 | 1017.6 |
| 20260502090312 | 51 | 77 | 11.0 | 14.0 | 0.00 | 0.00 | 0.00 | 55 | 1017.5 |
| 20260502071513 | 53 | 71 | 10.0 | 13.0 | 0.00 | 0.00 | 0.00 | 54 | 1017.9 |
| 20260502070912 | 52 | 82 | 9.0 | 13.0 | 0.00 | 0.00 | 0.00 | 55 | 1017.8 |
| 20260502070312 | 52 | 82 | 9.0 | 11.0 | 0.00 | 0.00 | 0.00 | 55 | 1017.8 |
| 20260502065712 | 52 | 84 | 8.0 | 11.0 | 0.00 | 0.00 | 0.00 | 55 | 1017.8 |
| 20260502065113 | 53 | 63 | 8.0 | 11.0 | 0.00 | 0.00 | 0.00 | 55 | 1017.7 |
| 20260502064512 | 53 | 68 | 9.0 | 12.0 | 0.00 | 0.00 | 0.00 | 55 | 1017.6 |
| 20260502063912 | 53 | 73 | 10.0 | 12.0 | 0.00 | 0.00 | 0.00 | 53 | 1017.6 |
| 20260502063312 | 52 | 72 | 10.0 | 12.0 | 0.00 | 0.00 | 0.00 | 55 | 1017.6 |
| 20260502062713 | 51 | 70 | 10.0 | 12.0 | 0.00 | 0.00 | 0.00 | 57 | 1017.6 |
| 20260502062112 | 50 | 73 | 9.0 | 11.0 | 0.00 | 0.00 | 0.00 | 58 | 1017.5 |
| 20260502061512 | 50 | 76 | 9.0 | 11.0 | 0.00 | 0.00 | 0.00 | 57 | 1017.5 |
| 20260502060912 | 49 | 75 | 9.0 | 11.0 | 0.00 | 0.00 | 0.00 | 58 | 1017.6 |
| 20260502060312 | 49 | 76 | 10.0 | 11.0 | 0.00 | 0.00 | 0.00 | 58 | 1017.6 |
| 20260502055711 | 49 | 79 | 9.0 | 11.0 | 0.00 | 0.00 | 0.00 | 57 | 1017.5 |
| 20260502055113 | 49 | 78 | 9.0 | 10.0 | 0.00 | 0.00 | 0.00 | 57 | 1017.7 |
| 20260502054512 | 49 | 80 | 9.0 | 10.0 | 0.00 | 0.00 | 0.00 | 57 | 1017.7 |
| 20260502053912 | 49 | 81 | 9.0 | 11.0 | 0.00 | 0.00 | 0.00 | 57 | 1017.7 |
| 20260502053312 | 49 | 83 | 10.0 | 11.0 | 0.00 | 0.00 | 0.00 | 57 | 1017.8 |
| 20260502052712 | 49 | 83 | 10.0 | 11.0 | 0.00 | 0.00 | 0.00 | 57 | 1017.9 |
| 20260502052112 | 50 | 83 | 10.0 | 11.0 | 0.00 | 0.00 | 0.00 | 57 | 1017.8 |
| 20260502051512 | 50 | 83 | 10.0 | 11.0 | 0.00 | 0.00 | 0.00 | 57 | 1017.9 |
| 20260502050911 | 50 | 83 | 10.0 | 11.0 | 0.00 | 0.00 | 0.00 | 57 | 1017.9 |
| 20260502050311 | 50 | 84 | 10.0 | 11.0 | 0.00 | 0.00 | 0.00 | 57 | 1017.8 |
| 20260502045712 | 50 | 82 | 10.0 | 11.0 | 0.00 | 0.00 | 0.00 | 56 | 1017.9 |
| 20260502045112 | 50 | 82 | 10.0 | 11.0 | 0.00 | 0.00 | 0.00 | 57 | 1017.8 |
| 20260502044512 | 49 | 82 | 10.0 | 12.0 | 0.00 | 0.00 | 0.00 | 57 | 1017.8 |
| 20260502043912 | 50 | 82 | 11.0 | 12.0 | 0.00 | 0.00 | 0.00 | 54 | 1018.0 |
| 20260502043312 | 51 | 80 | 9.0 | 11.0 | 0.00 | 0.00 | 0.00 | 53 | 1017.9 |
| 20260502042712 | 51 | 79 | 9.0 | 12.0 | 0.00 | 0.00 | 0.00 | 53 | 1017.9 |
| 20260502042112 | 51 | 77 | 9.0 | 12.0 | 0.00 | 0.00 | 0.00 | 53 | 1017.8 |
| 20260502041512 | 51 | 82 | 9.0 | 11.0 | 0.00 | 0.00 | 0.00 | 54 | 1017.8 |
| 20260502040911 | 50 | 84 | 10.0 | 11.0 | 0.00 | 0.00 | 0.00 | 58 | 1017.8 |
| 20260502040349 | 51 | 85 | 9.0 | 11.0 | 0.00 | 0.00 | 0.00 | 57 | 1017.8 |
| 20260502040312 | 51 | 85 | 9.0 | 11.0 | 0.00 | 0.00 | 0.00 | 57 | 1017.8 |
| 20260502035712 | 51 | 79 | 8.0 | 9.0 | 0.00 | 0.00 | 0.00 | 56 | 1017.7 |
| 20260502035112 | 51 | 78 | 8.0 | 10.0 | 0.00 | 0.00 | 0.00 | 56 | 1017.7 |
| 20260502034512 | 52 | 79 | 8.0 | 12.0 | 0.00 | 0.00 | 0.00 | 55 | 1017.7 |
| 20260502033911 | 51 | 86 | 10.0 | 12.0 | 0.00 | 0.00 | 0.00 | 56 | 1017.4 |
| 20260502033311 | 51 | 88 | 9.0 | 10.0 | 0.00 | 0.00 | 0.00 | 57 | 1017.6 |
| 20260502032712 | 52 | 87 | 9.0 | 10.0 | 0.00 | 0.00 | 0.00 | 57 | 1017.6 |
| 20260502032112 | 53 | 84 | 8.0 | 10.0 | 0.00 | 0.00 | 0.00 | 54 | 1017.4 |
| 20260502031512 | 54 | 84 | 8.0 | 9.0 | 0.00 | 0.00 | 0.00 | 52 | 1017.4 |
| 20260502030911 | 55 | 82 | 8.0 | 9.0 | 0.00 | 0.00 | 0.00 | 51 | 1017.4 |
| 20260502030312 | 57 | 80 | 7.0 | 9.0 | 0.00 | 0.00 | 0.00 | 49 | 1017.3 |
| 20260502025712 | 59 | 85 | 8.0 | 9.0 | 0.00 | 0.00 | 0.00 | 46 | 1017.2 |
| 20260502025112 | 60 | 86 | 8.0 | 9.0 | 0.00 | 0.00 | 0.00 | 44 | 1017.2 |
| 20260502024511 | 61 | 83 | 7.0 | 8.0 | 0.00 | 0.00 | 0.00 | 44 | 1017.1 |
| 20260502023912 | 62 | 82 | 5.0 | 7.0 | 0.00 | 0.00 | 0.00 | 42 | 1017.2 |
| 20260502023312 | 63 | 83 | 4.0 | 7.0 | 0.00 | 0.00 | 0.00 | 41 | 1017.4 |
| 20260502022712 | 64 | 81 | 4.0 | 5.0 | 0.00 | 0.00 | 0.00 | 39 | 1017.3 |
| 20260502022111 | 65 | 79 | 3.0 | 4.0 | 0.00 | 0.00 | 0.00 | 36 | 1017.3 |
| 20260502021512 | 66 | 80 | 3.0 | 4.0 | 0.00 | 0.00 | 0.00 | 35 | 1017.5 |
| 20260502020912 | 66 | 79 | 2.0 | 4.0 | 0.00 | 0.00 | 0.00 | 34 | 1017.5 |
| 20260502020311 | 67 | 80 | 3.0 | 4.0 | 0.00 | 0.00 | 0.00 | 34 | 1017.5 |
| 20260502015712 | 67 | 82 | 3.0 | 4.0 | 0.00 | 0.00 | 0.00 | 29 | 1017.6 |
| 20260502015112 | 68 | 81 | 3.0 | 4.0 | 0.00 | 0.00 | 0.00 | 31 | 1017.7 |
| 20260502014511 | 68 | 77 | 3.0 | 5.0 | 0.00 | 0.00 | 0.00 | 29 | 1017.8 |
| 20260502013912 | 69 | 73 | 3.0 | 5.0 | 0.00 | 0.00 | 0.00 | 27 | 1017.7 |
| 20260502013312 | 69 | 69 | 3.0 | 6.0 | 0.00 | 0.00 | 0.00 | 25 | 1017.8 |
| 20260502012711 | 70 | 65 | 4.0 | 7.0 | 0.00 | 0.00 | 0.00 | 23 | 1017.8 |
| 20260502012112 | 70 | 82 | 3.0 | 8.0 | 0.00 | 0.00 | 0.00 | 21 | 1017.8 |
| 20260502011512 | 70 | 81 | 5.0 | 9.0 | 0.00 | 0.00 | 0.00 | 20 | 1017.8 |
| 20260502010912 | 70 | 83 | 6.0 | 9.0 | 0.00 | 0.00 | 0.00 | 20 | 1017.9 |
| 20260502010312 | 70 | 86 | 4.0 | 7.0 | 0.00 | 0.00 | 0.00 | 21 | 1018.0 |
| 20260502005711 | 70 | 98 | 4.0 | 9.0 | 0.00 | 0.00 | 0.00 | 22 | 1018.0 |
| 20260502005112 | 71 | 96 | 6.0 | 10.0 | 0.00 | 0.00 | 0.00 | 20 | 1018.0 |
| 20260502003912 | 71 | 130 | 3.0 | 10.0 | 0.00 | 0.00 | 0.00 | 20 | 1018.0 |
| 20260502003312 | 71 | 96 | 5.0 | 10.0 | 0.00 | 0.00 | 0.00 | 20 | 1018.1 |
| 20260502002711 | 71 | 91 | 5.0 | 7.0 | 0.00 | 0.00 | 0.00 | 21 | 1018.1 |
| 20260502002112 | 72 | 82 | 2.0 | 8.0 | 0.00 | 0.00 | 0.00 | 22 | 1018.2 |
| 20260502001511 | 72 | 65 | 2.0 | 9.0 | 0.00 | 0.00 | 0.00 | 22 | 1018.3 |
| 20260502000912 | 72 | 73 | 4.0 | 9.0 | 0.00 | 0.00 | 0.00 | 21 | 1018.4 |
| 20260502000312 | 72 | 77 | 1.0 | 7.0 | 0.00 | 0.00 | 0.00 | 20 | 1018.3 |
| 20260501235711 | 71 | 144 | 2.0 | 13.0 | 0.00 | 0.00 | 0.00 | 22 | 1018.3 |